Location: Bazinghen
(50.8246°N, 1.6616°E)
Time: 13:52:51
(UTC+00:00)

STARLINK-1105 - Pass Details

Date: 09 April 2020
Orbit: 376 x 383 km, 53.0° (Epoch: 03 June)

Event Time Altitude Azimuth Distance (km) Brightness Sun altitude
Rises 19:38:58 0° 289° (WNW) 2,271 9.0 -9.6°
Reaches altitude 10° 19:41:04 10° 283° (WNW) 1,416 7.2 -9.9°
Maximum altitude 19:44:07 46° 209° (SSW) 527 3.5 -10.4°
Enters shadow 19:46:26 16° 139° (SE) 1,126 4.6 -10.7°
